Simultaneous Nadir Overpasses (SNOs) Predictions

Prediction of SNOs between METOP-A and TERRA Satellite Orbit:

Table of predicted SNOs for the next 14.0 days since TLE Epoch: 6/8/2019
Index Date (METOP-A) Time (METOP-A) Lat,Lon (METOP-A) SZA (METOP-A ) Date (TERRA) Time (TERRA) Lat,Lon (TERRA) SZA (TERRA ) Distance(km) Time Diff (sec)
1 06/10/2019 07:30:10 81.45, 117.59 61.70 06/10/2019 07:30:16 81.45, 117.57 61.70 0.27 6
2 06/10/2019 08:20:50 -81.45, -74.82 118.28 06/10/2019 08:19:43 -81.45, -74.88 118.33 1.07 67
3 06/13/2019 02:13:54 -81.45, 16.27 118.56 06/13/2019 02:15:04 -81.45, 16.34 118.52 1.40 70
4 06/13/2019 03:04:34 81.45,-176.03 61.49 06/13/2019 03:04:30 81.45,-175.93 61.50 1.61 4
5 06/15/2019 21:48:18 -81.45, 82.65 118.72 06/15/2019 21:49:18 -81.45, 82.85 118.66 3.20 60
6 06/15/2019 22:38:58 81.45,-109.66 61.33 06/15/2019 22:38:44 81.45,-109.46 61.35 3.26 14
7 06/18/2019 17:22:40 -81.45, 149.42 118.78 06/18/2019 17:23:31 -81.45, 149.32 118.76 1.74 51
8 06/18/2019 18:13:20 81.45, -42.90 61.27 06/18/2019 18:12:57 81.45, -43.02 61.25 2.11 23
9 06/21/2019 12:57:04 -81.45,-144.22 118.83 06/21/2019 12:57:45 -81.45,-144.23 118.81 0.44 41




NCC Satellite Simultaneous Nadir Overpasses (SNOs) Prediction Service
